Home   Weather   Rio Grande   Past weeks

Flag for Brazil Past Weather in Rio Grande, Rio Grande do Sul, Brazil — Yesterday and Last 2 Weeks

Now
50 °F

Fog.


Feels Like: 50 °F
Forecast: 48 / 63 °F
Wind: 2 mph from Northeast

Location: Porto Alegre Aero-Porto

Current Time: Sep 26, 2016 at 7:43:39 AM

Latest Report: Sep 26, 2016 at 7:00 AM


Visibility: 3 mi

Pressure: 30.12 "Hg

Humidity: 94%

Dew Point: 48 °F

Location of Rio GrandeLocation

Past Weather in Rio Grande — Graph

°F

Rio Grande Temperature Yesterday

Maximum temperature yesterday: 61 °F (at 3:00 PM)
Minimum temperature yesterday: 52 °F (at 11:00 PM)
Average temperature yesterday: 57 °F

High & Low Weather Summary for the Past Weeks

 TemperatureHumidityPressure
High88 °F (Sep 12, 2:00 PM)94% (Sep 11, 6:00 AM)30.24 "Hg (Sep 11, 6:00 AM)
Low48 °F (Sep 16, 4:00 AM)30% (Sep 17, 5:00 PM)29.39 "Hg (Sep 13, 2:00 AM)
Average62 °F70%30.04 "Hg
* Reported Sep 11 6:00 AM — Sep 26 6:00 AM, Rio Grande, Weather by CustomWeather, © 2016

Note: Actual official high and low records may vary slightly from our data, if they occured in-between our weather recording intervals... More about our weather records

Advertising

Rio Grande Weather History for the Previous 24 Hours

Scroll right to see more
 ConditionsComfort  
Time TempWeatherWind HumidityBarometerVisibility
6:00 AM
Mon, Sep 26
48 °FFog.2 mph94%30.12 "Hg3 mi
5:00 AM48 °FFog.No wind94%30.09 "Hg3 mi
4:00 AM50 °FClear.No wind88%30.09 "Hg10 mi
3:00 AM52 °FClear.No wind88%30.09 "Hg10 mi
2:00 AM54 °FPassing clouds.5 mph82%30.09 "HgN/A
1:00 AM55 °FPassing clouds.3 mph82%30.12 "HgN/A
12:00 AM55 °FPassing clouds.2 mph82%30.12 "HgN/A
11:00 PM
Sun, Sep 25
52 °FPassing clouds.2 mph82%30.15 "HgN/A
10:00 PM54 °FClear.2 mph77%30.15 "Hg10 mi
9:00 PM54 °FClear.2 mph82%30.15 "Hg10 mi
8:00 PM55 °FClear.3 mph77%30.15 "Hg10 mi
7:00 PM59 °FPassing clouds.5 mph68%30.15 "HgN/A
6:00 PM61 °FPassing clouds.7 mph59%30.15 "HgN/A
5:00 PM61 °FOvercast.5 mph59%30.12 "HgN/A
4:00 PM61 °FOvercast.6 mph63%30.12 "HgN/A
3:00 PM61 °FOvercast.6 mph63%30.15 "HgN/A
2:00 PM59 °FOvercast.5 mph68%30.15 "HgN/A
1:00 PM59 °FPartly sunny.3 mph68%30.18 "HgN/A
12:00 PM57 °FOvercast.8 mph67%30.21 "HgN/A
11:00 AM59 °FPartly sunny.8 mph63%30.21 "HgN/A
10:00 AM57 °FPartly sunny.8 mph67%30.24 "HgN/A
9:00 AM57 °FPartly sunny.6 mph67%30.21 "HgN/A
8:00 AM55 °FPassing clouds.8 mph72%30.21 "HgN/A
7:00 AM54 °FPassing clouds.7 mph72%30.18 "HgN/A
Weather by CustomWeather, © 2016

See weather overviewHow to use our weather pages